User: anonymous   Login
Location: Unspecified
(0.0000°N, 0.0000°E)
Time: 09:19:15
(UTC+00:00)
Language:

COSMOS 2497 - Orbit

View from above orbital plane
View from above orbital plane
View from above satellite
View from above satellite

Ground track
Ground track

The orbit data is extracted from the following two-line orbital elements,

1 39762U 14028B   17268.91295989 +.00000010 +00000-0 +00000-0 0  9999
2 39762 082.4504 305.0140 0020691 168.3824 191.7742 12.42869037151768
Epoch (UTC): 25 September 2017 21:54:39
Eccentricity: 0.0020691
inclination: 82.4504°
perigee height: 1478 km
apogee height: 1511 km
right ascension of ascending node: 305.0140°
argument of perigee: 168.3824°
revolutions per day: 12.42869037
mean anomaly at epoch: 191.7742°
orbit number at epoch: 15176

The dashed part of the orbit path shows where the satellite is in the earth's shadow,  

DLR